{"data":{"norad_id":59351,"intl_designator":"2024-060D","name":"STARLINK-31555","alt_names":[],"object_type":"PAYLOAD","status":"ACTIVE","operator":null,"country":"US","launch_date":"2024-03-31","launch_site_code":"AFETR","launch_vehicle":null,"mission":null,"orbit_class":"UNKNOWN","rcs_meters":null,"size_class":null,"mass_kg":null,"dimensions":null,"purposes":["comms"],"wikipedia_slug":null,"has_3d_model":false,"image_url":null,"decayed_at":null,"tle_current":{"epoch":"2026-09-21T22:15:43.833888Z","epoch_age_seconds":38963,"freshness":"FRESH","line1":"1 59351U 24060D   26264.92759067 -.00002093  00000+0 -66572-4 0  9995","line2":"2 59351  43.0017 231.7150 0000980 296.8683  63.2069 15.27578941140121","mean_motion":15.27578941,"eccentricity":9.8e-5,"inclination_deg":43.0017,"raan_deg":231.715,"arg_perigee_deg":296.8683,"mean_anomaly_deg":63.2069,"bstar":-6.6572e-5,"rev_number":14012,"period_min":94.266814064439,"perigee_km":482.37987052028,"apogee_km":483.72466361663,"semimajor_km":6861.1892670685,"source":"CELESTRAK","updated_at":"2026-09-22T09:00:48.903352Z"}}}